Weather History for KOZW - May, 2013

Change the Weather History Date:

Tuesday, May 14, 2013

  Actual Average Record
Temperature  
Mean Temperature 60 °F -  
Max Temperature 77 °F 65 °F 87 °F (1998)
Min Temperature 42 °F 46 °F 37 °F (1997)
Degree Days  
Heating Degree Days 6    
Growing Degree Days 10 (Base 50)    
Moisture  
Dew Point 39 °F    
Average Humidity 49    
Maximum Humidity 68    
Minimum Humidity 35    
Precipitation  
Precipitation 0.00 in - - ()
Sea Level Pressure  
Sea Level Pressure 29.89 in    
Wind  
Wind Speed 6 mph (South)    
Max Wind Speed 15 mph    
Max Gust Speed 20 mph    
Visibility 10 miles    
Events Rain    
Averages and records for this station are not official NWS values.
T = Trace of Precipitation, MM = Missing Value Source: NWS Daily Summary

Daily Weather History Graph

Daily Weather History Graph

Search for Another Location

Airport or City:

Trip Planner

Search our weather history database for the weather conditions in past years. The results will help you decide how hot, cold, wet, or windy it might be!

Date:

Astronomy

May. 14, 2013 Rise Set
Actual Time 6:14 AM EDT 8:50 PM EDT
Civil Twilight 5:42 AM EDT 9:23 PM EDT
Nautical Twilight 5:01 AM EDT 10:03 PM EDT
Astronomical Twilight 4:16 AM EDT 10:49 PM EDT
Moon 9:53 AM EDT (5/14) No Moon Set
Length of Visible Light 15h 40m
Length of Day
14h 36m
Waxing Crescent, 19% of the Moon is Illuminated
May 14
Waxing Crescent
May 18
First Quarter
May 25
Full
May 31
Last Quarter
Jun 8
New

Hourly Weather History & Observations

Time (EDT) Temp. Windchill Dew Point Humidity Pressure Visibility Wind Dir Wind Speed Gust Speed Precip Events Conditions
12:15 AM 46.4 °F 45.2 °F 25.0 °F 43% 30.08 in 10.0 mi SSW 3.5 mph - N/A   Clear
12:35 AM 45.7 °F 44.4 °F 25.5 °F 45% 30.07 in 10.0 mi SSW 3.5 mph - N/A   Clear
12:54 AM 43.7 °F - 30.0 °F 59% 30.07 in 10.0 mi Calm Calm - N/A   Clear
1:15 AM 42.4 °F 40.7 °F 30.7 °F 63% 30.07 in 10.0 mi SE 3.5 mph - N/A   Clear
1:34 AM 43.2 °F 40.5 °F 30.4 °F 61% 30.07 in 10.0 mi SSE 4.6 mph - N/A   Mostly Cloudy
1:55 AM 44.2 °F 42.7 °F 29.8 °F 57% 30.07 in 10.0 mi South 3.5 mph - N/A   Scattered Clouds
2:15 AM 44.1 °F 42.5 °F 30.0 °F 58% 30.06 in 10.0 mi South 3.5 mph - N/A   Mostly Cloudy
2:34 AM 44.6 °F 43.1 °F 30.0 °F 57% 30.06 in 10.0 mi South 3.5 mph - N/A   Overcast
2:55 AM 44.8 °F 43.3 °F 29.8 °F 56% 30.05 in 10.0 mi South 3.5 mph - N/A   Overcast
3:15 AM 44.6 °F 42.2 °F 30.6 °F 58% 30.05 in 10.0 mi South 4.6 mph - N/A   Overcast
3:34 AM 44.8 °F 42.4 °F 30.2 °F 57% 30.04 in 10.0 mi South 4.6 mph - N/A   Overcast
3:55 AM 44.8 °F 43.3 °F 30.7 °F 58% 30.06 in 10.0 mi SSE 3.5 mph - N/A   Overcast
4:15 AM 45.0 °F 43.5 °F 30.2 °F 56% 30.06 in 10.0 mi SSE 3.5 mph - N/A   Overcast
4:35 AM 44.2 °F - 31.1 °F 60% 30.05 in 10.0 mi Calm Calm - N/A   Overcast
4:55 AM 44.2 °F 41.8 °F 32.0 °F 62% 30.04 in 10.0 mi South 4.6 mph - N/A   Overcast
5:14 AM 44.6 °F 41.4 °F 31.8 °F 61% 30.03 in 10.0 mi SSE 5.8 mph - N/A   Overcast
5:35 AM 44.6 °F 42.2 °F 31.3 °F 60% 30.03 in 10.0 mi SSE 4.6 mph - N/A   Overcast
5:55 AM 45.1 °F 42.0 °F 31.1 °F 58% 30.02 in 10.0 mi SSE 5.8 mph - N/A   Overcast
6:15 AM 45.5 °F 40.8 °F 31.3 °F 58% 30.01 in 10.0 mi SE 9.2 mph - N/A   Light Drizzle
6:35 AM 45.7 °F 41.5 °F 31.1 °F 57% 30.01 in 10.0 mi SSE 8.1 mph - N/A   Overcast
6:55 AM 47.3 °F - 30.0 °F 51% 29.99 in 10.0 mi SSE 10.4 mph - N/A   Overcast
7:15 AM 47.7 °F - 30.2 °F 51% 29.98 in 10.0 mi SE 10.4 mph 17.3 mph N/A   Mostly Cloudy
7:35 AM 48.0 °F - 30.4 °F 51% 29.97 in 10.0 mi SSE 9.2 mph - N/A   Scattered Clouds
7:55 AM 49.1 °F - 31.5 °F 51% 29.98 in 10.0 mi SSE 9.2 mph - N/A   Clear
8:15 AM 50.4 °F - 31.5 °F 48% 29.97 in 10.0 mi SSE 6.9 mph 16.1 mph N/A   Scattered Clouds
8:35 AM 51.3 °F - 31.8 °F 47% 29.97 in 10.0 mi SSE 9.2 mph - N/A   Mostly Cloudy
8:54 AM 52.7 °F - 32.0 °F 45% 29.95 in 10.0 mi SSE 9.2 mph 16.1 mph N/A   Mostly Cloudy
9:15 AM 52.3 °F - 32.4 °F 47% 29.95 in 10.0 mi SSE 12.7 mph 16.1 mph N/A   Mostly Cloudy
9:35 AM 52.3 °F - 33.6 °F 49% 29.93 in 10.0 mi SSE 12.7 mph 17.3 mph N/A   Mostly Cloudy
9:54 AM 53.1 °F - 34.5 °F 49% 29.92 in 10.0 mi SSE 13.8 mph 19.6 mph N/A   Overcast
10:15 AM 54.5 °F - 35.4 °F 49% 29.91 in 10.0 mi SSE 15.0 mph - N/A   Overcast
10:35 AM 57.7 °F - 37.2 °F 46% 29.89 in 10.0 mi SSE 12.7 mph - N/A   Overcast
10:54 AM 57.4 °F - 36.5 °F 46% 29.88 in 10.0 mi SSE 12.7 mph - N/A   Overcast
11:15 AM 58.5 °F - 36.9 °F 45% 29.86 in 10.0 mi SSE 13.8 mph 18.4 mph N/A   Overcast
11:34 AM 59.4 °F - 37.9 °F 45% 29.86 in 10.0 mi SSE 12.7 mph - N/A   Overcast
11:55 AM 60.4 °F - 38.3 °F 44% 29.86 in 10.0 mi SSE 10.4 mph 17.3 mph N/A   Overcast
12:15 PM 62.2 °F - 39.6 °F 43% 29.85 in 10.0 mi SSE 12.7 mph - N/A   Overcast
12:34 PM 64.6 °F - 40.3 °F 41% 29.85 in 10.0 mi South 12.7 mph - N/A   Overcast
12:55 PM 67.6 °F - 41.5 °F 39% 29.85 in 10.0 mi South 11.5 mph 16.1 mph N/A   Overcast
1:15 PM 68.7 °F - 41.9 °F 38% 29.84 in 10.0 mi South 11.5 mph 18.4 mph N/A   Overcast
1:35 PM 70.2 °F - 41.9 °F 36% 29.83 in 10.0 mi South 12.7 mph 19.6 mph N/A   Mostly Cloudy
1:55 PM 71.6 °F - 43.7 °F 37% 29.82 in 10.0 mi SSW 15.0 mph 18.4 mph N/A   Mostly Cloudy
2:15 PM 71.4 °F - 43.0 °F 36% 29.81 in 10.0 mi South 11.5 mph - N/A   Mostly Cloudy
2:35 PM 72.5 °F - 44.4 °F 36% 29.80 in 10.0 mi SSW 12.7 mph - N/A   Mostly Cloudy
2:55 PM 73.2 °F - 43.9 °F 35% 29.80 in 10.0 mi South 8.1 mph - N/A   Scattered Clouds
3:15 PM 74.5 °F - 45.1 °F 35% 29.79 in 10.0 mi SSW 12.7 mph 18.4 mph N/A   Scattered Clouds
3:35 PM 75.4 °F - 46.0 °F 35% 29.79 in 10.0 mi SSW 11.5 mph 18.4 mph N/A   Clear
3:55 PM 75.6 °F - 46.8 °F 36% 29.78 in 10.0 mi South 12.7 mph 17.3 mph N/A   Clear
4:14 PM 75.7 °F - 47.8 °F 37% 29.78 in 10.0 mi SW 6.9 mph - N/A   Clear
4:35 PM 77.0 °F - 48.2 °F 36% 29.77 in 10.0 mi WSW 15.0 mph - N/A   Clear
4:55 PM 74.7 °F - 48.6 °F 40% 29.78 in 10.0 mi SW 5.8 mph - N/A   Clear
5:14 PM 74.3 °F - 48.9 °F 41% 29.78 in 10.0 mi SW 6.9 mph - N/A   Clear
5:35 PM 74.1 °F - 49.1 °F 41% 29.78 in 10.0 mi SW 6.9 mph - N/A   Clear
5:54 PM 74.3 °F - 49.1 °F 41% 29.78 in 10.0 mi WSW 8.1 mph - N/A   Clear
6:15 PM 74.3 °F - 51.3 °F 44% 29.75 in 10.0 mi Calm Calm - N/A   Clear
6:35 PM 75.2 °F - 50.2 °F 41% 29.76 in 10.0 mi WSW 4.6 mph - N/A   Clear
6:54 PM 74.3 °F - 50.0 °F 42% 29.76 in 10.0 mi SW 3.5 mph - N/A   Clear
7:15 PM 75.2 °F - 49.8 °F 41% 29.75 in 10.0 mi Calm Calm - N/A   Clear
7:35 PM 74.7 °F - 52.3 °F 46% 29.75 in 10.0 mi Calm Calm - N/A   Clear
7:54 PM 74.7 °F - 51.8 °F 45% 29.75 in 4.0 mi Calm Calm - N/A   Haze
8:15 PM 72.5 °F - 51.1 °F 47% 29.74 in 10.0 mi Calm Calm - N/A   Clear
8:34 PM 71.2 °F - 50.4 °F 48% 29.75 in 10.0 mi Calm Calm - N/A   Clear
8:55 PM 65.8 °F - 51.4 °F 60% 29.75 in 10.0 mi East 8.1 mph - N/A   Clear
9:15 PM 64.6 °F - 47.7 °F 54% 29.73 in 10.0 mi ESE 9.2 mph - N/A   Scattered Clouds
9:34 PM 62.8 °F - 46.4 °F 55% 29.72 in 10.0 mi ESE 10.4 mph - N/A   Scattered Clouds
9:55 PM 61.7 °F - 46.6 °F 58% 29.71 in 10.0 mi ESE 8.1 mph - N/A   Clear
10:15 PM 61.2 °F - 45.9 °F 57% 29.74 in 10.0 mi SE 6.9 mph - N/A   Clear
10:34 PM 60.8 °F - 46.2 °F 59% 29.76 in 10.0 mi SE 4.6 mph - N/A Rain Light Rain
10:55 PM 59.9 °F - 47.1 °F 63% 29.77 in 10.0 mi East 4.6 mph - N/A Rain Light Rain
11:15 PM 58.8 °F - 47.7 °F 66% 29.75 in 10.0 mi SE 6.9 mph - N/A   Scattered Clouds
11:35 PM 58.3 °F - 47.8 °F 68% 29.75 in 10.0 mi ESE 4.6 mph - N/A   Scattered Clouds
11:55 PM 58.1 °F - 47.3 °F 67% 29.73 in 10.0 mi SSE 6.9 mph - N/A Rain Light Rain